Content
SEND FEEDBACK

Daily
Averages
Monthly
Summary
France

BORDEAUX, FRANCE


Home > Europe > France
Elevation: 200 feet     Latitude: 44 50N     Longitude: 000 42W

WEATHER
 
SELECT A DAY
Number of Records: 320,451;   Date Range: 7/1/96 - 7/20/14
 
SHARE

PRINT THIS DATA

[ ← Previous Day ]
WEATHER ALMANAC - JULY 3, 2013
[ Next Day → ]
[ °C ]   °F
Weather ElementAverageHighLow
Temperature63.6 °F66.2 °F (12:00 pm)60.8 °F (1:30 am)
Dewpoint61.2 °F62.6 °F (4:00 am)55.4 °F (10:30 pm)
Humidity92.1 %100 % (2:00 am)77 % (9:00 pm)
Barometer30.08 in30.21 in (11:00 pm)30.01 in (2:00 am)
Wind Speed11.5 mph16.1 mph (2:00 pm)
Weather ElementAverage
Visibility5.1 mi
Wind DirectionWSW (259.4 °)

Weather ElementTotal
Precipitation---
Heating Degree Days1.5 (Base 65)
Growing Degree Days13.5 (Base 50)
Averaged from 51 records on July 3, 2013
WEATHER CONDITIONS BREAKOUT
WIND DIRECTION BREAKOUT
WEATHER BY HOUR - JULY 3, 2013
[ °C ]   °F
Local TimeTemperatureDewpointHumidityBarometerVisibilityWind DirectionWind SpeedGust SpeedPrecipitationEventsConditions
12:30 AM62.6 °F60.8 °F94 %30.04 in6.2 miSW (230°)6.9 mphRainLight Rain
1:00 AM62.6 °F60.8 °F94 %30.04 in6.2 miSW (230°)6.9 mphRainLight Rain
1:30 AM60.8 °F59.0 °F94 %30.04 in1.2 miWSW (240°)10.4 mphRainLight Rain
2:00 AM61.0 °F60.0 °F95 %30.03 inSW (220°)11.5 mphRainHeavy Rain
2:00 AM60.8 °F60.8 °F100 %30.01 in3.7 miSW (220°)11.5 mphLight Drizzle
2:30 AM60.8 °F60.8 °F100 %30.01 in5.0 miSW (230°)10.4 mphOvercast
3:00 AM62.6 °F60.8 °F94 %30.01 in6.2 miWSW (240°)13.8 mphLight Drizzle
3:30 AM62.6 °F60.8 °F94 %30.01 in6.2 miWSW (250°)12.7 mphOvercast
4:00 AM62.6 °F62.6 °F100 %30.01 in4.3 miWSW (250°)11.5 mphOvercast
4:30 AM62.6 °F62.6 °F100 %30.01 in1.2 miWSW (250°)11.5 mphOvercast
5:00 AM62.6 °F62.6 °F100 %30.01 in3.1 miWSW (250°)11.5 mphLight Drizzle
5:30 AM62.6 °F62.6 °F100 %30.01 inWSW (250°)11.5 mphLight Drizzle
6:00 AM62.6 °F62.6 °F100 %30.01 in2.8 miWest (260°)11.5 mphLight Drizzle
6:30 AM62.6 °F62.6 °F100 %30.01 in3.1 miWest (260°)10.4 mphLight Drizzle
7:00 AM62.6 °F62.6 °F100 %30.01 in5.6 miWSW (250°)10.4 mphOvercast
7:30 AM62.6 °F62.6 °F100 %30.04 in3.1 miWSW (250°)10.4 mphLight Drizzle
8:00 AM63.0 °F62.0 °F97 %30.04 inWSW (250°)10.4 mphRainLight Rain
8:00 AM62.6 °F62.6 °F100 %30.04 in4.3 miWSW (250°)10.4 mphDrizzle
8:30 AM62.6 °F62.6 °F100 %30.04 in4.3 miWSW (250°)12.7 mphRainLight Rain
9:00 AM64.4 °F62.6 °F94 %30.04 in3.7 miWSW (250°)11.5 mphDrizzle
9:30 AM64.4 °F62.6 °F94 %30.06 in4.3 miWSW (250°)11.5 mphLight Drizzle
10:00 AM64.4 °F62.6 °F94 %30.06 in3.1 miWest (260°)9.2 mphDrizzle
10:30 AM64.4 °F62.6 °F94 %30.06 in6.2 miWest (260°)13.8 mphOvercast
11:00 AM64.4 °F62.6 °F94 %30.06 in5.0 miWest (270°)11.5 mphRainLight Rain
11:30 AM64.4 °F62.6 °F94 %30.06 in6.2 miWest (270°)12.7 mphMostly Cloudy
12:00 PM66.2 °F62.6 °F88 %30.09 in6.2 miWest (280°)15.0 mphOvercast
12:30 PM66.2 °F62.6 °F88 %30.09 in6.2 miWest (260°)12.7 mphMostly Cloudy
1:00 PM66.2 °F62.6 °F88 %30.09 in6.2 miWSW (250°)15.0 mphOvercast
1:30 PM66.2 °F60.8 °F83 %30.09 in6.2 miWSW (250°)11.5 mphOvercast
2:00 PM65.0 °F61.0 °F83 %30.11 inWest (260°)16.1 mphPartly Cloudy
2:00 PM66.2 °F60.8 °F83 %30.09 in6.2 miWest (260°)16.1 mphOvercast
2:30 PM64.4 °F62.6 °F94 %30.09 in6.2 miWest (260°)13.8 mphLight Drizzle
3:00 PM64.4 °F62.6 °F94 %30.09 in6.2 miWSW (250°)15.0 mphOvercast
3:30 PM64.4 °F62.6 °F94 %30.12 in6.2 miWest (260°)15.0 mphOvercast
4:00 PM64.4 °F62.6 °F94 %30.12 in6.2 miWest (260°)11.5 mphOvercast
4:30 PM64.4 °F62.6 °F94 %30.12 in5.0 miWest (260°)12.7 mphLight Drizzle
5:00 PM64.4 °F62.6 °F94 %30.12 in6.2 miWest (270°)13.8 mphOvercast
5:30 PM64.4 °F62.6 °F94 %30.12 in6.2 miWest (270°)13.8 mphOvercast
6:00 PM64.4 °F62.6 °F94 %30.12 in3.1 miWest (270°)12.7 mphRainLight Rain
6:30 PM64.4 °F62.6 °F94 %30.12 in6.2 miWest (280°)15.0 mphOvercast
7:00 PM64.4 °F62.6 °F94 %30.12 in3.1 miWest (270°)11.5 mphRainLight Rain
7:30 PM64.4 °F60.8 °F88 %30.12 in6.2 miWNW (290°)11.5 mphMostly Cloudy
8:00 PM64.0 °F60.0 °F82 %30.15 inWest (270°)10.4 mphPartly Cloudy
8:00 PM64.4 °F59.0 °F83 %30.12 in6.2 miWest (270°)10.4 mphMostly Cloudy
8:30 PM64.4 °F59.0 °F83 %30.15 in6.2 miWNW (300°)11.5 mphOvercast
9:00 PM64.4 °F57.2 °F77 %30.15 in6.2 miWNW (290°)9.2 mphOvercast
9:30 PM62.6 °F57.2 °F82 %30.15 in6.2 miWNW (290°)9.2 mphOvercast
10:00 PM62.6 °F57.2 °F82 %30.18 in6.2 miWNW (300°)9.2 mphOvercast
10:30 PM62.6 °F55.4 °F77 %30.18 in6.2 miWest (280°)8.1 mphOvercast
11:00 PM62.6 °F55.4 °F77 %30.21 in6.2 miWest (270°)4.6 mphOvercast
11:30 PM60.8 °F57.2 °F88 %30.21 in6.2 miWest (270°)5.8 mphOvercast
Hourly data recorded from LFBD, located miles away from Bordeaux, France







STORIES FROM OUR PARTNERS